Location: Martin
(32.0982°N, 93.2193°W)
Time: 15:30:28
(UTC+00:00)

Hubble Space Telescope - Pass Details

Date: 25 September 2024
Orbit: 503 x 507 km, 28.5° (Epoch: 12 October)

Event Time Altitude Azimuth Distance (km) Brightness Sun altitude
Exits shadow 11:34:28 - 229° (SW) 2,286 3.5 -6.9°
Reaches altitude 10° 11:36:11 10° 219° (SW) 1,694 2.9 -6.6°
Maximum altitude 11:39:25 25° 163° (SSE) 1,040 2.4 -5.9°
Drops below altitude 10° 11:42:39 10° 107° (ESE) 1,698 4.8 -5.2°
Sets 11:45:08 0° 93° (E) 2,583 7.1 -4.7°
